Regional Weather Roundup
Issued by NWS Binghamton, NY

Home | Current Version | Previous Version | Text Only | Print | Product List | Glossary On
Versions: 1 2 3 4 5 6 7 8 9 10 11 12 13 14 15 16 17 18 19 20 21 22 23 24 25 26 27 28 29 30 31 32 33 34 35 36 37 38 39 40 41 42 43 44 45 46 47 48 49 50
000
ASUS41 KBGM 080410
RWRBGM

REGIONAL WEATHER ROUNDUP
NATIONAL WEATHER SERVICE BINGHAMTON NY
1100 PM EST SUN FEB 07 2016

Note: "fair" indicates few or no clouds below 12,000 feet with no
significant weather and/or obstructions to visibility.

* = Station(s) that does not report precipitation, such as rain,
snow, etc, also no thunder or fog.

!NYZ009-015>018-022>025-036-037-044>046-055>057-062-080500
...CENTRAL NEW YORK...

CITY           SKY/WX    TMP DP  RH WIND       PRES   REMARKS
BINGHAMTON     CLOUDY    31  20  63 SE8       29.88F WCI  23
CORTLAND       FAIR      30  27  86 N3        29.91F
DANSVILLE      CLOUDY    35  26  69 SE8       29.88F WCI  29
ELMIRA         CLOUDY    26  22  84 CALM      29.90F
ITHACA         CLOUDY    31  23  72 E6        29.90F WCI  25
HORNELL        CLEAR     30  27  86 SE5       29.90F WCI  25
MONTICELLO     CLOUDY    30  19  64 NE5       29.93F WCI  25
PENN YAN       CLOUDY    31  25  78 CALM      29.88F
ROME           CLOUDY    31  22  69 SE8       29.97F WCI  23
SIDNEY         CLEAR     28  27  93 CALM      29.93F
SYRACUSE       CLOUDY    30  24  78 E7        29.93F WCI  23
$$

!PAZ038>040-043-044-047-048-072-080500
...NORTHEAST PENNSYLVANIA...

CITY           SKY/WX    TMP DP  RH WIND       PRES   REMARKS
HAZLETON       CLOUDY    32  21  64 CALM      29.90F
SCRANTON       CLOUDY    35  20  54 E3        29.91F
$$
&&
KEY
WCI = WIND CHILL INDEX
VSB = VISIBILITY
HX  = HEAT INDEX
$$



USA.gov is the U.S. government's official web portal to all federal, state and local government web resources and services.